Date,TemperatureHighF,TemperatureAvgF,TemperatureLowF,DewpointHighF,DewpointAvgF,DewpointLowF,HumidityHigh,HumidityAvg,HumidityLow,PressureMaxIn,PressureMinIn,WindSpeedMaxMPH,WindSpeedAvgMPH,GustSpeedMaxMPH,PrecipitationSumIn
2013-3-1,46,40,34,35,29,25,92,66,47,29.76,29.59,0,0,0,0.00
2013-3-2,39,36,32,30,24,21,89,61,51,29.76,29.68,0,0,0,0.00
2013-3-3,41,33,30,27,19,16,81,57,39,29.73,29.64,0,0,0,0.00
2013-3-4,40,33,28,19,18,15,66,53,41,29.88,29.72,0,0,0,0.00
2013-3-5,47,38,31,30,23,19,67,55,36,30.01,29.87,0,0,0,0.00
2013-3-6,42,40,38,36,31,27,82,71,60,29.99,29.87,0,0,0,0.00
2013-3-7,39,36,33,34,30,25,100,81,64,30.06,29.91,0,0,0,0.06
2013-3-8,41,36,31,35,31,23,100,84,50,30.16,29.98,0,0,0,0.33
2013-3-9,55,43,34,25,20,14,68,43,21,30.32,30.16,0,0,0,0.03
2013-3-10,43,37,29,35,32,27,95,82,70,30.39,30.31,0,0,0,0.00
2013-3-11,51,44,38,48,41,35,100,87,72,30.33,30.11,0,0,0,0.00
2013-3-12,55,51,45,55,50,38,100,95,75,30.11,29.67,0,0,0,0.57
2013-3-13,53,43,34,40,30,18,100,65,30,29.88,29.77,0,0,18,0.01
2013-3-14,39,34,29,27,10,2,65,38,21,29.93,29.83,0,0,18,0.00
2013-3-15,45,37,30,29,16,3,57,43,28,29.95,29.70,0,0,0,0.00
2013-3-16,40,35,32,33,25,18,100,69,44,29.90,29.77,0,0,0,0.01
2013-3-17,38,34,29,30,17,6,94,54,29,30.30,29.90,0,0,0,0.03
2013-3-18,34,30,25,34,15,4,100,56,36,30.42,30.06,0,0,0,0.02
2013-3-19,42,37,34,38,35,28,100,93,70,30.06,29.68,0,0,0,0.76
2013-3-20,45,37,31,28,18,11,70,47,26,29.87,29.78,0,0,0,0.01
2013-3-21,37,34,32,27,20,9,79,57,34,29.84,29.62,0,0,0,0.00
2013-3-22,40,35,28,20,16,9,64,45,34,29.86,29.71,0,0,0,0.00
2013-3-23,44,38,33,21,18,14,57,44,29,29.91,29.79,0,0,0,0.00
2013-3-24,47,39,31,26,20,15,63,47,33,29.93,29.71,0,0,0,0.00
2013-3-25,42,39,37,37,29,23,96,67,48,29.71,29.46,0,0,0,0.09
2013-3-26,52,43,37,30,27,23,68,54,33,29.85,29.57,0,0,0,0.05
2013-3-27,51,42,34,28,24,20,74,51,29,29.94,29.84,12,3,24,0.00
2013-3-28,50,44,37,34,29,27,71,57,45,30.08,29.93,9,5,24,0.00
2013-3-29,54,47,38,30,27,22,65,48,29,30.13,30.03,9,4,21,0.00
2013-3-30,58,47,34,31,26,16,82,49,20,30.15,30.05,8,2,20,0.00
2013-3-31,54,44,32,45,33,-100,100,70,49,30.13,29.66,5,1,20,0.10